FENGYUN 1C DEB, 30072

Orbit data source: Space-Track

FENGYUN 1C DEB, 30072 is space debris in SSO originally from a launch on Mon, 10 May 1999 UTC launched from the Taiyaun Space Center, China (TSC). Fengyun 1C debris stems from the Chinese weather satellite Fengyun-1C, which was intentionally destroyed by a Chinese anti-satellite missile in 2007. This event dramatically increased the amount of space debris, with thousands of trackable fragments posing hazards to satellites and human spaceflight. The Fengyun 1C debris cloud has become a focal point in discussions about space sustainability and the need for international regulations to prevent the creation of new debris.

Loading next visibility...
Identifier
30072, 1999-025PZ
Orbit
SSO
Country
Flag of CNCN / PRC
Related business
Manufacturer
Unknown
Mission
Spacecraft
Bus & Motor
Unknown
Mass
Unknown
Launch date (UTC)
1999-05-10 (27 years ago)
Launch vehicle
Unknown
Launch site
Taiyaun Space Center, China (TSC)
Object type
Payload
Rocket body
Debris
Shape & HBR
Unknown shape, 0.1 m
Radar Cross Section
Medium (>0.1 m² and <1 m²)

Expand to show TLE details & history
Last TLE update: 19 hours ago

TLE from 19 hours ago
0 FENGYUN 1C DEB
1 30072U 99025PZ  26255.25276141  .00005085  00000-0  15293-2 0  9995
2 30072  99.0948  65.1792 0055196 186.9810 173.0615 14.42210059 11094
Epoch: 2026-09-12T06:03Z
TLE epoch observation values (Epoch: 2026-09-12T06:03:58.585Z)
Latitude
-0.00002°
Longitude
-17.07933°
Altitude
793.212 km
Speed
7.437 km/s
True Right ascension
04h 20m 43s
True Declination
0° 00' 00"
Sunlit
Object was in daylight at epoch
Visualization orbit readout
Latitude
Unknown
Longitude
Unknown
Altitude
Unknown
Speed
Unknown
Apparent Right ascension
Unknown
Apparent Declination
Unknown
Sunlit
N/A
Visualization observer readout
Local Sidereal Time
17:51:49
Azimuth
Unknown
Elevation
Unknown
Doppler factor
Unknown
Orbital elements
Apogee altitude
787.689 km
Perigee altitude
709.018 km
Semi-major axis
7,126.491 km
Eccentricity
0.00552
Inclination
99.0948°
RAAN
65.1792°
Arg. of periapsis
186.981°
True anomaly
173.13739°
Mean anomaly
173.0615°
Eccentric anomaly
173.0995°
Mean motion
3.60769 °/min
Orbital period
99.79 mins
BSTAR
0.0015293
Loading maneuver chart data...
Computing Atmospheric mass density...

Documentation

Showing up to 5 results
|